Powrót do katalogu

STARLINK-5636

AktywnyŁącznośćVLEO
NORAD 55454·PAYLOAD·🇺🇸 United States

Wystrzelony Feb 2, 2023 z Cape Canaveral Space Force Station

Loading…

Następne Przeloty (najbliższe 24 godziny)

TLE

ŚwieżeSource: CelesTrak SupGP

Epoka: Sep 14, 2026, 21:05 UTC

1 55454C 23015F   26257.87895833 -.00026462  00000+0 -95843-3 0  2577
2 55454  43.0018 340.2349 0001249 271.0757 194.7875 15.27592469    13

Śledź STARLINK-5636 w czasie rzeczywistym z AllMySat

Download on the App Store